Regional Weather Roundup
Issued by NWS State College, PA

Home | Current Version | Previous Version | Text Only | Print | Product List | Glossary On
Versions: 1 2 3 4 5 6 7 8 9 10 11 12 13 14 15 16 17 18 19 20 21 22 23 24 25 26 27 28 29 30 31 32 33 34 35 36 37 38 39 40 41 42 43 44 45 46 47 48 49 50
000
ASUS41 KCTP 210710
RWRCTP

REGIONAL WEATHER ROUNDUP
NATIONAL WEATHER SERVICE STATE COLLEGE PA
200 AM EST WED FEB 21 2018

Note: "fair" indicates few or no clouds below 12,000 feet with no
significant weather and/or obstructions to visibility.

* = STATION THAT DOES NOT REPORT PRECIPITATION /E.G. RAIN...SNOW...ETC/
    THUNDER OR FOG.

PAZ002>004-007>009-013>016-020>023-029>032-210800-
WESTERN PENNSYLVANIA

CITY           SKY/WX    TMP DP  RH WIND       PRES   REMARKS
ERIE           MOCLDY    70  52  52 SW20G28   30.08S
MEADVILLE      MOCLDY    64  52  64 S10G18    30.14S
FRANKLIN*      FAIR      64  50  60 SW10      30.18S
NEW CASTLE     FAIR      66  52  60 S8        30.17S
BEAVER COUNTY  NOT AVBL
BUTLER*        MOCLDY    64  50  60 S5        30.20S
PITTSBURGH INT MOCLDY    65  50  58 S3        30.19S
PITTSBURGH     FAIR      63  48  58 S10       30.20F
INDIANA*       CLEAR     61  52  72 SW8       30.26S
LATROBE        FAIR      63  50  63 SW12      30.23S
WASHINGTON CO* FAIR      63  49  60 S7        30.24S
$$

PAZ004>006-010>012-017>019-024>028-033>037-041-042-045-046-049>053-210800-
CENTRAL PENNSYLVANIA

CITY           SKY/WX    TMP DP  RH WIND       PRES   REMARKS
BRADFORD       FAIR      63  50  62 S7        30.19F
DUBOIS         FAIR      63  47  55 SW12      30.20F
CLEARFIELD     FAIR      51  49  92 CALM      30.23S
JOHNSTOWN      FAIR      62  50  64 S10       30.26S
ALTOONA        FAIR      58  51  78 SW5       30.26F
STATE COLLEGE  FAIR      58  53  81 CALM      30.25S
WILLIAMSPORT   FOG       38  38 100 CALM      30.25S VSB 3/4
SELINSGROVE    FAIR      45  44  97 SW3       30.26S
FT INDIANTOWN  FOG       44  44 100 CALM      30.29S VSB 1/4
CAPITAL CITY   FAIR      57  53  86 CALM      30.28S
HARRISBURG     FAIR      51  48  89 VRB3      30.28S
YORK           FAIR      62  56  80 S7        30.29S
$$

PAZ038>040-043-044-047-048-054-055-060>062-067>071-210800-
EASTERN PENNSYLVANIA

CITY           SKY/WX    TMP DP  RH WIND       PRES   REMARKS
SCRANTON       FAIR      56  53  90 NE3       30.26F
MOUNT POCONO   FAIR      55  54  96 SW12      30.29F
ALLENTOWN      FAIR      44  42  93 CALM      30.29F
QUAKERTOWN*    MOSUNNY   57  57 100 CALM      30.31S
READING        FAIR      59  57  93 S8        30.28F
LANCASTER      FAIR      54  53  97 E6        30.30S FOG
COATESVILLE    CLOUDY    57 N/A N/A VRB3      30.33S HAZE
POTTSTOWN      FAIR      58  58 100 S5        30.32F
BLUE BELL      FAIR      57  57 100 SW5       30.33S
DOYLESTOWN     CLOUDY    59  58  96 VRB3      30.31S
WILLOW GROVE   NOT AVBL
NORTH PHILA    FAIR      60  57  89 S5        30.34S FOG
PHILADELPHIA   FAIR      57  57 100 S7        30.33S FOG
$$



USA.gov is the U.S. government's official web portal to all federal, state and local government web resources and services.